Time,TemperatureF,DewpointF,PressureIn,WindDirection,WindDirectionDegrees,WindSpeedMPH,WindSpeedGustMPH,Humidity,HourlyPrecipIn,Conditions,Clouds,dailyrainin,SoftwareType,DateUTC
2013-09-24 00:04:00,58.0,55.0,30.09,South,186,2.0,5.0,89,0.00,,,0.00,,2013-09-24 04:04:00,
2013-09-24 00:14:00,58.0,55.0,30.09,South,186,2.0,5.0,89,0.00,,,0.00,,2013-09-24 04:14:00,
2013-09-24 00:24:00,57.0,54.0,30.09,SSW,192,5.0,8.0,90,0.00,,,0.00,,2013-09-24 04:24:00,
2013-09-24 00:54:00,57.0,54.0,30.09,SSE,164,2.0,8.0,91,0.00,,,0.00,,2013-09-24 04:54:00,
2013-09-24 01:13:00,57.0,54.0,30.09,South,190,1.0,6.0,91,0.00,,,0.00,,2013-09-24 05:13:00,
2013-09-24 01:23:00,57.0,54.0,30.09,South,190,1.0,6.0,91,0.00,,,0.00,,2013-09-24 05:23:00,
2013-09-24 01:53:00,57.0,54.0,30.10,South,185,4.0,8.0,90,0.00,,,0.00,,2013-09-24 05:53:00,
2013-09-24 02:22:00,57.0,53.0,30.10,SSE,157,1.0,8.0,88,0.00,,,0.00,,2013-09-24 06:22:00,
2013-09-24 02:52:00,57.0,53.0,30.11,South,186,2.0,7.0,88,0.00,,,0.00,,2013-09-24 06:52:00,
2013-09-24 03:03:00,57.0,53.0,30.11,South,186,2.0,7.0,88,0.00,,,0.00,,2013-09-24 07:03:00,
2013-09-24 03:22:00,57.0,53.0,30.10,SSW,196,2.0,6.0,87,0.00,,,0.00,,2013-09-24 07:22:00,
2013-09-24 03:52:00,56.0,52.0,30.10,South,173,3.0,7.0,87,0.00,,,0.00,,2013-09-24 07:52:00,
2013-09-24 04:02:00,56.0,52.0,30.10,South,173,3.0,7.0,87,0.00,,,0.00,,2013-09-24 08:02:00,
2013-09-24 04:11:00,56.0,52.0,30.10,South,173,3.0,7.0,87,0.00,,,0.00,,2013-09-24 08:11:00,
2013-09-24 04:52:00,55.0,52.0,30.10,SSE,149,1.0,3.0,88,0.00,,,0.00,,2013-09-24 08:52:00,
2013-09-24 05:02:00,55.0,52.0,30.10,SSE,149,1.0,3.0,88,0.00,,,0.00,,2013-09-24 09:02:00,
2013-09-24 05:21:00,55.0,52.0,30.11,South,178,4.0,6.0,88,0.00,,,0.00,,2013-09-24 09:21:00,
2013-09-24 05:54:00,55.0,52.0,30.11,South,191,4.0,9.0,88,0.00,,,0.00,,2013-09-24 09:54:00,
2013-09-24 06:03:00,55.0,52.0,30.11,South,191,4.0,9.0,88,0.00,,,0.00,,2013-09-24 10:03:00,
2013-09-24 06:23:00,55.0,51.0,30.11,South,170,1.0,6.0,87,0.00,,,0.00,,2013-09-24 10:23:00,
2013-09-24 06:33:00,55.0,51.0,30.11,South,170,1.0,6.0,87,0.00,,,0.00,,2013-09-24 10:33:00,
2013-09-24 06:53:00,55.0,51.0,30.11,SSW,198,0.0,0.0,85,0.00,,,0.00,,2013-09-24 10:53:00,
2013-09-24 07:03:00,55.0,51.0,30.11,SSW,198,0.0,0.0,85,0.00,,,0.00,,2013-09-24 11:03:00,
2013-09-24 07:11:00,55.0,51.0,30.11,SSW,198,0.0,0.0,85,0.00,,,0.00,,2013-09-24 11:11:00,
2013-09-24 07:22:00,55.0,51.0,30.11,SSW,198,0.0,0.0,85,0.00,,,0.00,,2013-09-24 11:22:00,
2013-09-24 07:52:00,55.0,51.0,30.11,SSW,213,0.0,0.0,87,0.00,,,0.00,,2013-09-24 11:52:00,
2013-09-24 08:01:00,55.0,51.0,30.11,SSW,213,0.0,0.0,87,0.00,,,0.00,,2013-09-24 12:01:00,
2013-09-24 08:12:00,55.0,51.0,30.11,SSW,213,0.0,0.0,87,0.00,,,0.00,,2013-09-24 12:12:00,
2013-09-24 08:22:00,55.0,51.0,30.11,SSW,213,0.0,0.0,87,0.00,,,0.00,,2013-09-24 12:22:00,
2013-09-24 08:52:00,56.0,52.0,30.12,South,185,0.0,0.0,86,0.00,,,0.00,,2013-09-24 12:52:00,
2013-09-24 09:22:00,56.0,52.0,30.12,SSW,195,0.0,1.0,85,0.00,,,0.00,,2013-09-24 13:22:00,
2013-09-24 09:52:00,56.0,52.0,30.12,SSW,213,0.0,5.0,85,0.00,,,0.00,,2013-09-24 13:52:00,
2013-09-24 10:21:00,58.0,53.0,30.11,SW,221,5.0,6.0,83,0.00,,,0.00,,2013-09-24 14:21:00,
2013-09-24 10:52:00,58.0,53.0,30.11,South,173,5.0,7.0,82,0.00,,,0.00,,2013-09-24 14:52:00,
2013-09-24 11:11:00,59.0,53.0,30.11,SW,222,3.0,7.0,80,0.00,,,0.00,,2013-09-24 15:11:00,
2013-09-24 11:22:00,59.0,53.0,30.11,SW,222,3.0,7.0,80,0.00,,,0.00,,2013-09-24 15:22:00,
2013-09-24 11:33:00,59.0,53.0,30.11,SW,222,3.0,7.0,80,0.00,,,0.00,,2013-09-24 15:33:00,
2013-09-24 11:54:00,64.0,56.0,30.09,East,86,0.0,6.0,75,0.00,,,0.00,,2013-09-24 15:54:00,
2013-09-24 12:03:00,64.0,56.0,30.09,East,86,0.0,6.0,75,0.00,,,0.00,,2013-09-24 16:03:00,
2013-09-24 12:23:00,66.0,56.0,30.09,South,175,0.0,3.0,70,0.00,,,0.00,,2013-09-24 16:23:00,
2013-09-24 12:33:00,66.0,56.0,30.09,South,175,0.0,3.0,70,0.00,,,0.00,,2013-09-24 16:33:00,
2013-09-24 12:53:00,66.0,56.0,30.09,South,175,0.0,3.0,70,0.00,,,0.00,,2013-09-24 16:53:00,
2013-09-24 13:00:00,71.0,59.0,30.06,South,181,1.0,7.0,65,0.00,,,0.00,,2013-09-24 17:00:00,
2013-09-24 13:23:00,71.0,59.0,30.06,South,181,1.0,7.0,65,0.00,,,0.00,,2013-09-24 17:23:00,
2013-09-24 13:33:00,71.0,59.0,30.06,South,181,1.0,7.0,65,0.00,,,0.00,,2013-09-24 17:33:00,
2013-09-24 13:54:00,71.0,59.0,30.06,South,181,1.0,7.0,65,0.00,,,0.00,,2013-09-24 17:54:00,
2013-09-24 14:22:00,74.0,60.0,30.03,SSE,153,3.0,8.0,61,0.00,,,0.00,,2013-09-24 18:22:00,
2013-09-24 14:32:00,74.0,60.0,30.03,SSE,153,3.0,8.0,61,0.00,,,0.00,,2013-09-24 18:32:00,
2013-09-24 14:52:00,75.0,60.0,30.01,ENE,62,1.0,7.0,59,0.00,,,0.00,,2013-09-24 18:52:00,
2013-09-24 15:02:00,75.0,60.0,30.01,ENE,62,1.0,7.0,59,0.00,,,0.00,,2013-09-24 19:02:00,
2013-09-24 15:22:00,77.0,61.0,29.99,WSW,258,4.0,7.0,57,0.00,,,0.00,,2013-09-24 19:22:00,
2013-09-24 15:32:00,77.0,61.0,29.99,WSW,258,4.0,7.0,57,0.00,,,0.00,,2013-09-24 19:32:00,
2013-09-24 15:52:00,77.0,61.0,29.99,WSW,258,4.0,7.0,57,0.00,,,0.00,,2013-09-24 19:52:00,
2013-09-24 16:22:00,78.0,60.0,29.98,SSW,192,6.0,9.0,54,0.00,,,0.00,,2013-09-24 20:22:00,
2013-09-24 16:52:00,77.0,60.0,29.98,South,186,3.0,10.0,56,0.00,,,0.00,,2013-09-24 20:52:00,
2013-09-24 17:12:00,75.0,60.0,29.97,SSW,193,6.0,10.0,60,0.00,,,0.00,,2013-09-24 21:12:00,
2013-09-24 17:22:00,75.0,60.0,29.97,SSW,193,6.0,10.0,60,0.00,,,0.00,,2013-09-24 21:22:00,
2013-09-24 17:33:00,75.0,60.0,29.97,SSW,193,6.0,10.0,60,0.00,,,0.00,,2013-09-24 21:33:00,
2013-09-24 18:24:00,71.0,61.0,29.96,South,182,6.0,12.0,70,0.00,,,0.00,,2013-09-24 22:24:00,
2013-09-24 18:54:00,69.0,60.0,29.96,South,182,7.0,12.0,73,0.00,,,0.00,,2013-09-24 22:54:00,
2013-09-24 19:03:00,69.0,60.0,29.96,South,182,7.0,12.0,73,0.00,,,0.00,,2013-09-24 23:03:00,
2013-09-24 19:13:00,69.0,60.0,29.96,South,182,7.0,12.0,73,0.00,,,0.00,,2013-09-24 23:13:00,
2013-09-24 19:22:00,69.0,60.0,29.96,South,182,7.0,12.0,73,0.00,,,0.00,,2013-09-24 23:22:00,
2013-09-24 19:43:00,67.0,60.0,29.96,South,178,6.0,9.0,79,0.00,,,0.00,,2013-09-24 23:43:00,
2013-09-24 19:53:00,67.0,60.0,29.96,South,178,6.0,9.0,79,0.00,,,0.00,,2013-09-24 23:53:00,
2013-09-24 20:00:00,65.0,60.0,29.96,South,176,8.0,10.0,83,0.00,,,0.00,,2013-09-25 00:00:00,
2013-09-24 20:02:00,67.0,60.0,29.96,South,178,6.0,9.0,79,0.00,,,0.00,,2013-09-25 00:02:00,
2013-09-24 20:22:00,65.0,60.0,29.96,South,176,8.0,10.0,83,0.00,,,0.00,,2013-09-25 00:22:00,
2013-09-24 20:33:00,65.0,60.0,29.96,South,176,8.0,10.0,83,0.00,,,0.00,,2013-09-25 00:33:00,
2013-09-24 20:52:00,65.0,60.0,29.96,South,176,8.0,10.0,83,0.00,,,0.00,,2013-09-25 00:52:00,
2013-09-24 21:52:00,64.0,59.0,29.97,South,175,6.0,9.0,85,0.00,,,0.00,,2013-09-25 01:52:00,
2013-09-24 22:12:00,64.0,59.0,29.97,South,178,5.0,8.0,84,0.00,,,0.00,,2013-09-25 02:12:00,
2013-09-24 22:22:00,64.0,59.0,29.97,South,178,5.0,8.0,84,0.00,,,0.00,,2013-09-25 02:22:00,
2013-09-24 22:52:00,64.0,59.0,29.98,South,176,3.0,5.0,85,0.00,,,0.00,,2013-09-25 02:52:00,
2013-09-24 23:23:00,63.0,59.0,29.98,East,95,0.0,3.0,86,0.00,,,0.00,,2013-09-25 03:23:00,
2013-09-24 23:55:00,63.0,59.0,29.98,East,95,0.0,0.0,87,0.00,,,0.00,,2013-09-25 03:55:00,